Regional Weather Roundup
Issued by NWS Grand Forks, ND

Home | Current Version | Previous Version | Text Only | Print | Product List | Glossary Off
Versions: 1 2 3 4 5 6 7 8 9 10 11 12 13 14 15 16 17 18 19 20 21 22 23 24 25 26 27 28 29 30 31 32 33 34 35 36 37 38 39 40 41 42 43 44 45 46 47 48 49 50

000
ASUS43 KFGF 271810
RWRFGF
PRAIRIE TO PINES  WEATHER ROUNDUP
NATIONAL WEATHER SERVICE EASTERN NORTH DAKOTA/GRAND FORKS ND
100 PM CDT FRI MAR 27 2015

 **SATELLITE DATA USED TO AUGMENT SKY COVER AT AUTOMATED STATIONS**
 *****  WEATHER ACROSS EASTERN NORTH DAKOTA  *****

CITY           SKY/WX    TMP DP  RH WIND       PRES   REMARKS
GRAND FORKS    CLOUDY    31  13  47 S12       30.14F WCI  22
6HR MIN TEMP:  13; 6HR MAX TEMP:  31;

GRAND FRKS AFB CLOUDY    30  16  55 S12G21    30.13F WCI  21
GRAND FRKS NWS   N/A     32 N/A N/A S12         N/A  WCI  23
DEVILS LAKE    CLOUDY    27  23  86 S16       30.03F VSB 1   WCI  14
6HR MIN TEMP:  21; 6HR MAX TEMP:  27;

FARGO          PTSUNNY   34   9  35 S14       30.16F WCI  25
WAHPETON ARPT  MOCLDY    32   9  37 S12       30.18F WCI  23
$$

 ***** WEATHER ACROSS CENTRAL AND WESTERN NORTH DAKOTA  *****

CITY           SKY/WX    TMP DP  RH WIND       PRES   REMARKS
BISMARCK       CLOUDY    33  28  81 S13       29.99F WCI  24
6HR MIN TEMP:  25; 6HR MAX TEMP:  34; 6HR PCP:  0.02;

MINOT          PTSUNNY   38  30  73 S16       29.90F
6HR MIN TEMP:  28; 6HR MAX TEMP:  38; 6HR PCP:  0.05;

JAMESTOWN      LGT SNOW  27  23  85 S15       30.07S FOG     WCI  15
6HR MIN TEMP:  20; 6HR MAX TEMP:  27; 6HR PCP:  0.04;

MINOT AFB      PTSUNNY   37  36  97 SW9       29.89F
GARRISON         N/A     39  34  82 SW15      29.91F
WILLISTON      CLOUDY    55  34  45 NW12      29.92S
6HR MIN TEMP:  35; 6HR MAX TEMP:  55;

DICKINSON      SUNNY     61  36  39 W18       29.88F
6HR MIN TEMP:  32; 6HR MAX TEMP:  61;

HETTINGER      MOSUNNY   60  37  42 W22       29.93F
6HR MIN TEMP:  31; 6HR MAX TEMP:  60;

$$

 *****  OTHER AIRPORT OBSERVATIONS IN OUR AREA  *****

CITY           SKY/WX    TMP DP  RH WIND       PRES   REMARKS
WALHALLA       MIX PCPN  28  28 100 S14       30.09F WCI  17
GRAFTON AIRPOR NOT AVBL
VALLEY CITY AR FAIR      30  18  59 S14       30.10F WCI  20
CANDO          NOT AVBL
CAVALIER APRT  FAIR      28  23  80 S16       30.11F WCI  17
GWINNER        PTCLDY    32  18  55 S13         N/A  WCI  22
ROLLA          FLURRIES  27  27 100 S15G21    29.97F WCI  15
 ***** THE ABOVE OBSERVATIONS ARE NON NWS ARE NOT QUALITY
       CONTROLLED AND MAY MIS-REPORT RAIN FOR SNOW...
$$

  *****  WEATHER ACROSS NORTHERN MINNESOTA  *****

CITY           SKY/WX    TMP DP  RH WIND       PRES   REMARKS
FLAG ISLAND    MOSUNNY   21  10  63 S12       30.15F WCI   9
WARROAD        PTSUNNY   28   9  43 SW9       30.16F WCI  20
ROSEAU         PTSUNNY   28  12  50 SW9       30.15F WCI  20
HALLOCK        PTSUNNY   30  12  47 S12       30.14F WCI  21
THF RVR FALLS  PTSUNNY   28  10  47 S12       30.16F WCI  18
6HR MIN TEMP:  16; 6HR MAX TEMP:  28;

BAUDETTE       MOSUNNY   29   6  38 S7        30.15F WCI  22
6HR MIN TEMP:   7; 6HR MAX TEMP:  29;

WASKISH        MOSUNNY   27  10  50 CALM      30.16F
CROOKSTON      PTSUNNY   30  10  43 SW12G18   30.17F WCI  21
STEPHEN NDAWN    N/A     30  10  43 S12         N/A  WCI  21
GREENBUSH NDAW   N/A     28  16  59 S12         N/A  WCI  18
$$
  *****  WEATHER ACROSS CENTRAL AND WEST MINNESOTA  *****

CITY           SKY/WX    TMP DP  RH WIND       PRES   REMARKS
FOSSTON        PTSUNNY   30   5  34 S10G18    30.15F WCI  21
BEMIDJI        MOSUNNY   31   3  30 S3        30.14F
PARK RAPIDS    SUNNY     32   3  29 S6        30.14F
6HR MIN TEMP:   7; 6HR MAX TEMP:  32;

ELBOW LAKE     FAIR      30   6  36 S7        30.18F WCI  23
WADENA         MOSUNNY   30   7  37 SW8       30.16F WCI  23
DETROIT LAKES  PTSUNNY   32   5  32 S9        30.16F WCI  24
MOORHEAD       PTSUNNY   32   5  32 S10       30.17F WCI  24
FERGUS FALLS   PTSUNNY   30   1  29 SW9       30.20F WCI  22
MORRIS MN      PTSUNNY   30  10  43 S6        30.19F WCI  24
STAPLES        SUNNY     30   1  29 S7        30.17F WCI  23
$$
  *****  WEATHER ELSEWHERE ACROSS MINNESOTA  *****

CITY           SKY/WX    TMP DP  RH WIND       PRES   REMARKS
DULUTH         MOSUNNY   26   6  42 SE6       30.19F WCI  19
6HR MIN TEMP:  10; 6HR MAX TEMP:  27;

INTRNTL FALLS  SUNNY     27   6  41 S6        30.17F WCI  20
6HR MIN TEMP:   3; 6HR MAX TEMP:  28;

ELY            SUNNY     27  -4  26 CALM      30.17F
CLOQUET        SUNNY     27   0  31 CALM      30.20S
WHEATON        CLOUDY    28  12  50 S10       30.20F WCI  19
BRAINERD       SUNNY     29   1  30 MISG      30.20F
6HR MIN TEMP:   7; 6HR MAX TEMP:  29;

HIBBING        SUNNY     29   0  28 VRB3      30.17F
6HR MIN TEMP:   1; 6HR MAX TEMP:  29; 6HR PCP: TRACE;

ALEXANDRIA     PTSUNNY   29   6  38 SW8       30.18F WCI  21
6HR MIN TEMP:  12; 6HR MAX TEMP:  29; 6HR PCP: TRACE;

SAINT CLOUD    SUNNY     29   1  30 VRB5      30.22F WCI  24
6HR MIN TEMP:  11; 6HR MAX TEMP:  29;

MINNEAPOLIS    MOSUNNY   31   1  28 SW6       30.25F
6HR MIN TEMP:  18; 6HR MAX TEMP:  32;

$$

  *****  WEATHER ACROSS SOUTH DAKOTA  *****

CITY           SKY/WX    TMP DP  RH WIND       PRES   REMARKS
SIOUX FALLS    CLOUDY    32   8  36 SW7       30.19F
6HR MIN TEMP:  12; 6HR MAX TEMP:  32;

BROOKINGS      NOT AVBL
WATERTOWN      PTSUNNY   31   9  39 SW8       30.13F WCI  23
6HR MIN TEMP:  11; 6HR MAX TEMP:  31;

HURON          CLOUDY    33  13  43 S13       30.14F WCI  24
6HR MIN TEMP:  14; 6HR MAX TEMP:  33;

SISSETON         N/A     33  10  38 S9        30.15F
ABERDEEN       CLOUDY    32  17  54 S14       30.13F WCI  22
6HR MIN TEMP:  18; 6HR MAX TEMP:  32;

MITCHELL       CLOUDY    34  16  47 S10       30.17F
PIERRE         CLOUDY    36  32  85 SE16G24   30.02F
6HR MIN TEMP:  26; 6HR MAX TEMP:  35; 6HR PCP:  0.01;

MOBRIDGE       CLOUDY    33  28  81 SE18      29.99F WCI  22
RAPID CITY     MOSUNNY   65  37  35 N24G38    29.96F
6HR MIN TEMP:  32; 6HR MAX TEMP:  65;

$$

  *****  SOME WEATHER IN NEARBY STATES *****

CITY           SKY/WX    TMP DP  RH WIND       PRES   REMARKS
GLASGOW MT     PTSUNNY   59  37  44 W8        29.95F
6HR MIN TEMP:  34; 6HR MAX TEMP:  59;

GREAT FALLS MT FAIR      68  28  22 W21       30.03F
6HR MIN TEMP:  38; 6HR MAX TEMP:  69;

CHEYENNE WY    MOSUNNY   57  28  33 NW21G35   30.16F
6HR MIN TEMP:  44; 6HR MAX TEMP:  58;

SCOTTSBLUFF NE PTSUNNY   64  39  39 NW21      30.08F
6HR MIN TEMP:  37; 6HR MAX TEMP:  64; 6HR PCP: TRACE;

OMAHA NE       CLOUDY    37  16  42 CALM      30.26F
6HR MIN TEMP:  22; 6HR MAX TEMP:  38;

DES MOINES IA  PTSUNNY   39   9  29 VRB5      30.25F
6HR MIN TEMP:  26; 6HR MAX TEMP:  39;

DAVENPORT IA   SUNNY     33  10  38 N8        30.23S
6HR MIN TEMP:  23; 6HR MAX TEMP:  33;

CHICAGO IL     MOSUNNY   29  10  45 NE13      30.16S WCI  19
6HR MIN TEMP:  22; 6HR MAX TEMP:  30; 6HR PCP: TRACE;

EAU CLAIRE WI  SUNNY     30   5  34 VRB3      30.22F
6HR MIN TEMP:  16; 6HR MAX TEMP:  30;

LA CROSSE WI   SUNNY     31  11  43 SW9       30.24F WCI  23
6HR MIN TEMP:  17; 6HR MAX TEMP:  32;

$$

  *****  SOME NATIONAL WEATHER *****

CITY           SKY/WX    TMP DP  RH WIND       PRES   REMARKS
LA GUARDIA NY  CLOUDY    44  34  67 NW8       29.73S
6HR MIN TEMP:  40; 6HR MAX TEMP:  45; 6HR PCP: TRACE;

RALEIGH NC     CLOUDY    46  42  86 NE14G25   29.76F
6HR MIN TEMP:  46; 6HR MAX TEMP:  51; 6HR PCP:  0.17;

ATLANTA GA     MOSUNNY   55  36  48 NW23      29.85R
6HR MIN TEMP:  46; 6HR MAX TEMP:  55;

NEW ORLEANS LA MOSUNNY   63  34  33 NW14      30.07F
6HR MIN TEMP:  51; 6HR MAX TEMP:  63;

OKLAHOMA CITY  CLOUDY    50  36  58 N10G20    30.25S
6HR MIN TEMP:  45; 6HR MAX TEMP:  50;

ALBUQUERQUE NM SUNNY     63  20  19 VRB3      30.31F
6HR MIN TEMP:  42; 6HR MAX TEMP:  64;

SALT LAKE CITY FAIR      60  31  33 VRB5      30.32F
6HR MIN TEMP:  39; 6HR MAX TEMP:  60;

LOS ANGELES CA FAIR      79  46  31 CALM      30.09S
6HR MIN TEMP:  60; 6HR MAX TEMP:  79;



USA.gov is the U.S. government's official web portal to all federal, state and local government web resources and services.